STARLINK-36887, 67950

Orbit data source: Space-Track

STARLINK-36887, 67950 is a payload satellite owned by SpaceX/Seattle (US) in LEO that was launched on Tue, 24 Feb 2026 UTC via an FALCON 9 launch vehicle from the Air Force Eastern Test Range (AFETR). Payload-class satellites include a variety of spacecraft equipped with specific instruments for various scientific and technological missions. These include communications satellites like Starlink; space stations such as the ISS; scientific satellites like the Hubble; Earth observation satellites from companies like Planet Labs, Umbra, and HawkEye 360; GPS; miniature CubeSats for education and research; and military/defense satellites.

Loading next visibility...
Identifier
67950, 2026-037U
Orbit
LEO
Country
Flag of USUS
Related business
Manufacturer
SpaceX/Seattle
Mission
Operational Commercial Communications
Bus & Motor
STARLINK V2MO, Unknown motor
Mass
575 kg wet, ~530 kg dry
Launch date (UTC)
2026-02-24 (4 months ago)
Launch vehicle
FALCON 9
Launch site
Air Force Eastern Test Range (AFETR)
Object type
Payload
Rocket body
Debris
Shape & HBR
Box + 2 Pan, 17.7 m
Radar Cross Section
36.964 m², Large (>1 m²)

Expand to show TLE details & history
Last TLE update: 9 hours ago

TLE from 9 hours ago
0 STARLINK-36887
1 67950U 26037U   26171.46055662  .00014636  00000-0  54018-3 0  9997
2 67950  43.0005 330.7318 0001705 263.9574  96.1084 15.27588663 19059
Epoch: 2026-06-20T11:03Z
TLE epoch observation values (Epoch: 2026-06-20T11:03:12.091Z)
Latitude
Longitude
-103.74343°
Altitude
482.923 km
Speed
7.626 km/s
True Right ascension
22h 02m 55s
True Declination
0° 00' 00"
Sunlit
Object was in full shadow at epoch
Visualization orbit readout
Latitude
Unknown
Longitude
Unknown
Altitude
Unknown
Speed
Unknown
Apparent Right ascension
Unknown
Apparent Declination
Unknown
Sunlit
N/A
Visualization observer readout
Local Sidereal Time
07:11:59
Azimuth
Unknown
Elevation
Unknown
Doppler factor
Unknown
Orbital elements
Apogee altitude
486.138 km
Perigee altitude
483.798 km
Semi-major axis
6,863.105 km
Eccentricity
0.00017
Inclination
43.0005°
RAAN
330.7318°
Arg. of periapsis
263.9574°
True anomaly
96.12783°
Mean anomaly
96.1084°
Eccentric anomaly
96.11811°
Mean motion
3.81735 °/min
Orbital period
94.31 mins
BSTAR
0.00054018
Loading maneuver chart data...
Computing Atmospheric mass density...
Loading historical data...
Loading historical data...
Loading historical data...
Loading historical data...
Loading historical data...
Loading historical data...
Loading historical data...

Documentation

Showing up to 5 results
|